パンスターズ彗星

C/2020 R2 ( PanSTARRS )

English version
Home page
Updated on December 11, 2022

---------------------------------------------------------------------

・ プロフィール

発見日 2020年9月12日
発見光度 20.5等
発見者 Pan-STARRS2 1.8-m Ritchey-Chretien reflector (Haleakala)

・ 写真集

・ 軌道要素

Epoch 2022 Aug. 9.0 TT = JDT 2459800.5
T 2022 Feb. 24.67669 TT                                 Rudenko
q   4.6919675            (2000.0)            P               Q
z  +0.0024668      Peri.  211.76061     +0.73887389     -0.64074910
 +/-0.0000027      Node   195.09331     +0.64997410     +0.59604078
e   0.9884258      Incl.   53.22827     -0.17776117     -0.48391732
>From 377 observations 2020 Aug. 18-2022 Oct. 26, mean residual 0".6.

・ 光度変化

        m1 = 4.5 + 5 logΔ + 15.0 log r

---------------------------------------------------------------------

軌道要素はM.P.E.C. 2022-U349に掲載されたものです。
光度グラフはComet for Windowsで作成したものです。

---------------------------------------------------------------------

Copyright(C) Seiichi Yoshida (comet@aerith.net). All rights reserved.